Wind_Speed
40 40 39 38 38 38 38 38 37 37 36 36 36 36 37 37 37 38 40 41 40 40 39 38 37 37 36 37 38 40 44 46 48 49 51 53 53 52 52 50 49 48 46 45 44 43 42 41 41 41 40 39 38 37 36 35 34 32 30 28 26 25 23 22 22 21 18 16 15 14 13 13 11 10 10 11 14 15 15 15 13 9 12 22 25 22 25 27
42 41 41 41 40 40 40 40 40 39 39 38 38 38 39 39 40 40 41 42 43 43 42 41 40 39 39 38 39 40 42 45 47 48 50 53 55 54 54 53 51 50 49 47 46 45 44 43 43 42 41 40 39 38 37 36 35 33 31 30 28 27 26 25 25 24 21 18 18 19 16 13 12 10 10 13 16 17 17 18 19 15 16 24 24 22 25 28
43 43 43 43 43 43 42 42 42 42 41 41 40 40 40 41 42 42 43 43 44 45 45 45 44 43 42 41 41 41 43 43 44 46 49 52 55 56 56 55 54 53 51 50 49 48 46 45 44 43 41 40 39 38 37 37 36 34 33 31 30 29 28 28 27 26 24 21 20 20 18 14 12 10 12 15 16 19 21 20 19 19 22 25 23 22 25 29
45 45 45 45 45 45 45 45 45 44 44 43 43 42 42 43 44 44 45 45 46 47 48 48 47 46 45 44 43 43 44 43 43 44 47 51 54 56 57 57 56 55 54 53 51 50 48 47 45 44 43 41 40 40 39 38 37 36 35 33 31 30 30 30 29 28 26 24 22 20 18 14 10 10 14 17 18 21 22 21 21 22 24 24 23 23 25 29
48 48 48 48 48 48 47 47 47 47 47 46 46 45 44 45 45 46 47 47 48 48 49 50 50 50 48 47 46 46 46 44 44 45 46 49 52 54 56 58 58 57 56 55 53 52 51 49 48 46 45 44 43 42 41 40 39 38 37 35 34 33 33 32 30 30 28 27 26 23 21 18 13 10 13 16 17 20 21 22 21 22 23 22 23 23 25 31
51 51 52 52 51 51 51 50 50 50 49 49 48 48 47 47 47 48 49 49 50 50 51 52 52 52 52 50 49 49 48 46 46 46 47 48 50 52 54 57 59 59 58 57 56 55 53 52 51 49 48 47 45 44 43 42 41 40 39 38 37 35 35 34 32 32 31 30 29 28 26 24 21 15 13 13 12 16 21 21 18 18 20 20 22 24 27 32
54 54 54 55 55 55 54 54 53 53 53 52 51 51 50 50 49 50 50 51 52 52 52 53 54 54 54 53 53 52 51 50 48 47 48 48 48 50 52 55 59 60 59 59 59 57 56 55 54 52 51 50 48 47 46 45 44 43 42 42 40 39 38 36 35 34 33 33 32 31 30 29 26 21 17 16 14 17 22 22 19 15 16 19 22 25 29 30
57 57 58 58 58 58 58 57 57 56 56 55 54 54 53 53 52 52 52 52 53 54 54 54 55 56 56 56 55 55 55 54 50 48 49 49 49 50 51 53 56 59 60 60 60 60 59 58 56 55 54 52 50 49 49 48 47 46 45 45 44 43 41 39 39 38 36 36 35 33 32 31 30 27 23 21 23 25 23 23 23 18 18 22 25 27 29 28
59 60 61 61 62 62 62 61 61 60 59 59 58 57 56 56 55 54 54 54 54 55 56 56 56 57 58 58 58 58 58 57 53 50 50 51 51 51 51 52 53 56 59 60 60 61 61 59 59 57 56 55 53 53 52 51 50 49 48 48 47 46 45 43 42 41 39 39 37 35 34 33 33 31 29 27 29 30 28 27 26 22 21 23 24 26 28 27
58 60 62 63 64 65 65 65 65 64 63 62 62 61 60 59 58 57 57 56 56 57 57 58 58 59 59 60 60 61 61 59 56 53 53 54 53 53 53 52 52 53 56 59 60 61 61 60 60 59 58 58 57 56 55 54 53 52 52 51 50 49 47 45 44 43 42 41 39 37 36 35 35 34 33 32 32 32 31 30 27 24 23 22 23 26 28 29
57 59 61 63 64 66 67 67 68 67 67 66 65 64 63 62 61 60 60 59 58 58 59 59 60 60 61 61 62 62 62 61 59 56 56 57 56 55 55 54 53 52 54 57 59 60 60 61 61 60 60 60 59 58 57 57 56 56 55 54 52 51 49 47 46 45 44 43 41 39 37 36 37 36 34 34 35 34 32 30 27 25 24 24 25 27 29 29
59 60 62 63 64 66 67 68 69 69 70 69 68 67 67 66 65 64 63 62 61 60 60 61 61 62 63 63 63 64 63 63 62 60 60 60 59 57 57 56 55 54 54 56 57 58 58 59 60 61 61 61 60 60 60 60 60 59 58 57 55 53 51 49 48 47 46 46 44 41 39 38 38 38 37 37 38 38 36 34 31 29 28 29 29 30 31 30
61 63 64 66 66 67 67 68 69 70 71 71 71 70 70 69 68 67 66 65 64 63 62 62 63 64 65 65 65 64 65 65 64 63 63 63 61 60 59 58 57 56 55 55 55 56 57 57 59 60 60 60 61 61 62 62 62 62 60 60 57 55 52 50 49 49 49 48 46 44 42 40 40 41 40 40 41 40 39 38 36 34 32 32 32 32 32 29
60 64 66 69 70 70 70 70 69 69 70 71 72 73 72 72 71 71 70 68 67 66 65 64 65 65 66 67 66 65 66 67 66 65 65 65 64 62 61 60 60 59 58 56 55 56 56 56 57 58 58 59 60 61 63 63 63 63 62 62 59 57 54 51 51 52 52 50 48 47 45 43 42 43 43 42 42 41 40 39 38 36 35 35 34 33 30 28
58 62 66 70 72 74 74 73 72 70 70 70 71 73 74 74 74 74 73 72 70 69 68 67 67 67 67 68 67 67 67 68 67 67 67 67 66 65 64 63 62 62 60 59 57 56 56 57 57 57 57 58 58 59 61 63 63 63 64 63 61 58 56 54 53 54 54 51 50 49 47 46 45 45 44 44 44 43 41 40 39 38 37 36 34 31 28 27
56 60 64 69 73 75 77 76 76 74 72 71 70 70 73 75 76 76 76 75 74 73 72 71 70 70 69 69 68 69 69 69 69 69 69 69 68 68 67 66 65 64 63 62 60 58 57 57 58 57 56 56 56 57 59 60 62 63 64 64 62 60 57 56 55 55 55 53 52 51 50 49 48 46 46 46 46 45 43 41 40 39 37 35 33 31 29 28
56 59 63 68 72 76 77 78 78 78 75 73 71 68 70 73 77 78 79 78 78 76 75 75 74 72 71 70 70 71 71 71 71 70 70 70 70 70 69 69 67 66 65 64 63 61 60 59 58 58 56 55 55 56 57 59 61 62 62 63 63 60 59 58 57 56 56 55 53 54 53 52 50 48 48 47 46 46 44 43 41 39 37 35 33 32 30 29
59 60 62 66 70 75 77 78 79 80 78 76 73 70 69 70 74 78 80 81 81 80 79 78 77 75 74 72 72 72 73 73 72 72 71 72 71 71 71 71 70 68 67 66 65 64 63 61 59 58 57 56 57 57 58 59 60 60 60 60 61 60 59 58 58 57 56 55 55 55 55 53 51 50 49 48 46 46 45 43 41 39 37 36 34 32 31 30
62 61 62 65 68 72 75 77 78 79 79 78 76 74 72 69 70 75 80 82 83 83 83 82 80 78 77 75 74 75 75 74 74 74 73 73 73 73 73 73 72 70 69 68 68 67 66 64 62 60 59 59 59 59 59 59 59 58 57 57 58 59 59 58 58 57 55 54 54 55 55 53 51 50 49 48 47 46 45 43 41 40 38 37 35 32 31 30
64 63 63 64 67 69 72 74 75 77 77 78 77 76 75 73 71 73 77 82 84 85 86 85 84 82 80 78 78 78 77 76 76 76 75 75 74 74 74 74 73 72 71 70 70 69 67 66 65 64 63 62 61 61 60 58 57 57 56 56 56 58 59 58 57 56 54 52 51 52 54 53 51 50 49 47 47 46 45 44 42 40 39 37 35 33 31 31
66 64 64 64 65 66 68 70 71 72 74 76 76 77 77 76 76 75 76 80 84 87 88 88 87 85 84 83 82 80 78 78 78 78 77 77 76 75 75 74 74 74 73 73 72 70 68 67 67 68 67 65 63 62 61 59 57 56 55 55 55 56 57 58 57 56 53 52 51 50 51 53 51 49 48 46 46 45 44 43 42 40 39 37 34 32 31 30
68 66 64 63 63 63 64 65 66 68 70 73 74 75 76 77 79 79 77 79 83 87 90 91 90 89 88 87 85 83 81 80 80 79 79 78 78 77 76 75 75 75 75 75 74 71 69 69 70 71 70 68 66 64 63 61 58 56 56 55 54 54 56 57 57 55 51 49 48 47 48 51 50 47 46 45 44 43 42 42 41 40 38 36 33 31 31 31
68 65 63 61 60 60 60 61 62 64 66 69 72 73 75 77 80 81 81 82 83 86 90 92 93 92 92 91 89 86 85 83 82 81 80 79 79 78 77 77 76 76 76 76 75 73 72 73 74 74 73 71 69 67 65 63 60 58 57 56 56 55 56 57 56 53 50 47 46 44 45 46 46 44 42 43 42 41 40 39 39 39 38 36 34 32 32 32
67 62 60 58 57 56 56 57 59 61 63 66 69 71 73 75 79 81 84 85 86 87 90 93 95 95 96 95 92 90 88 86 84 83 82 81 80 80 80 80 79 78 78 77 77 76 75 76 77 76 74 73 71 69 68 66 63 60 59 58 58 57 57 58 56 53 51 48 44 44 42 39 40 41 40 41 41 39 38 38 37 37 37 37 37 34 33 33
63 58 56 54 53 52 52 53 55 57 59 62 64 67 69 72 75 79 83 86 88 89 90 93 96 98 98 97 95 94 92 89 87 86 84 83 83 82 82 82 82 81 80 79 78 77 77 78 78 77 76 75 73 72 70 69 66 63 61 61 60 60 59 59 57 55 52 48 44 42 40 36 37 40 39 38 38 35 35 36 36 37 37 38 37 36 34 34
59 54 52 50 49 48 48 49 51 53 55 57 59 62 65 68 71 75 80 84 88 90 92 94 96 99 99 99 98 97 94 91 90 90 88 85 85 85 84 83 83 83 83 82 80 78 79 79 79 78 78 76 75 74 73 71 69 66 64 64 64 62 61 60 59 56 52 47 44 42 39 36 37 39 37 34 33 33 33 35 35 36 36 36 37 35 35 34
55 50 48 47 45 44 44 46 47 49 51 53 55 57 60 63 67 71 75 80 85 90 93 95 96 98 100 100 99 98 97 95 95 94 91 88 87 86 86 85 85 84 84 82 80 79 80 80 80 79 79 78 76 75 75 73 72 70 68 67 66 64 63 62 60 57 53 48 44 42 40 38 37 38 36 33 33 33 33 34 35 35 35 36 36 35 34 32
52 48 45 43 41 41 41 42 44 46 48 50 51 53 57 60 63 67 70 75 82 88 93 96 97 97 99 100 100 100 100 99 98 97 94 91 90 89 88 87 87 85 84 82 81 81 82 81 80 79 78 77 77 77 76 75 74 73 72 71 69 67 66 64 62 59 55 50 45 42 41 39 37 37 36 33 34 34 33 33 34 34 34 34 35 34 33 31
50 45 42 40 38 37 38 40 42 44 45 47 49 51 54 57 60 64 66 71 78 83 88 94 96 97 97 100 101 101 101 100 99 99 97 95 94 93 91 90 88 87 85 84 83 84 83 82 82 80 79 78 78 79 78 76 75 76 75 74 72 70 68 66 64 61 57 52 48 45 43 41 39 38 36 33 35 36 34 34 33 33 34 34 33 32 31 30
46 42 38 36 34 33 35 37 40 42 43 46 48 50 53 56 59 61 64 68 72 77 83 89 94 96 96 98 101 101 101 100 101 101 100 99 98 97 95 93 91 88 86 86 86 85 84 84 84 84 83 82 81 80 79 78 77 77 77 76 74 73 71 69 66 63 59 56 52 48 45 44 42 40 37 35 38 39 36 34 33 33 34 34 33 32 30 29
43 38 35 33 31 30 32 34 37 39 42 45 47 50 53 55 57 59 61 64 66 70 76 83 90 95 96 97 99 100 101 101 102 103 102 102 102 101 99 96 93 91 88 87 87 86 85 85 85 85 84 84 83 83 82 81 80 79 79 77 76 75 74 71 68 65 62 59 57 53 49 47 46 43 41 39 42 42 37 35 34 33 35 35 35 33 32 31
40 35 32 29 28 27 29 32 34 36 40 43 46 50 52 54 55 56 58 59 61 65 70 76 84 91 95 96 97 98 100 102 102 103 103 104 104 103 101 98 95 93 90 89 88 87 86 86 85 84 84 84 84 85 84 84 83 81 81 79 78 77 76 74 72 68 66 63 61 58 53 50 48 46 44 42 45 45 40 36 35 34 35 36 36 35 35 34
38 34 30 26 24 24 26 29 31 34 37 41 45 48 50 51 51 52 55 57 59 60 64 70 78 84 90 94 96 97 99 101 103 103 104 106 105 103 102 100 98 96 94 92 91 89 88 87 86 85 85 85 85 85 86 85 85 84 83 82 80 79 78 76 75 72 70 67 65 63 57 52 50 49 47 46 47 48 43 38 37 35 36 38 38 37 38 37
38 33 28 24 22 22 23 26 29 32 35 39 42 46 47 48 49 52 54 55 56 57 60 66 73 78 84 89 94 97 98 100 103 106 107 107 105 103 102 102 101 99 98 96 95 93 91 89 87 87 87 86 85 86 85 85 84 84 84 83 82 81 80 78 77 75 73 71 69 67 60 54 52 52 52 50 49 49 45 41 39 38 38 40 41 40 40 40
37 32 27 23 20 19 20 23 26 29 32 36 39 42 44 47 49 51 53 54 56 59 62 66 69 73 78 83 89 95 97 99 102 106 107 106 104 102 102 102 102 101 100 98 98 97 95 93 91 89 87 85 85 85 85 84 84 84 83 82 82 82 81 80 79 77 76 74 72 69 63 58 57 57 56 54 52 51 49 46 44 42 41 42 43 44 44 43
36 31 26 22 18 17 17 20 23 26 29 32 36 39 43 46 50 52 54 56 58 61 62 63 64 66 70 76 83 89 95 99 101 103 105 105 103 101 100 101 101 101 100 99 99 99 98 96 94 92 89 87 87 87 87 87 86 85 83 82 82 82 81 81 80 79 77 76 74 71 68 64 62 61 60 59 57 56 54 50 48 46 44 42 43 45 46 45
35 30 25 21 18 15 15 17 20 23 26 29 32 36 41 45 50 52 54 56 57 58 59 59 59 60 63 68 75 81 89 96 100 101 102 102 101 101 100 100 100 100 99 99 99 100 100 98 97 95 92 91 90 90 90 91 90 88 86 85 83 83 83 83 82 80 78 76 75 74 72 69 67 66 65 64 63 61 58 54 51 49 46 42 42 44 48 47
35 30 25 21 17 15 14 15 17 20 24 27 31 35 39 44 48 49 52 54 55 55 56 56 56 57 58 61 66 73 81 90 96 99 99 98 99 99 99 100 100 99 99 98 99 100 100 100 99 98 97 96 94 93 93 92 90 88 87 86 85 85 86 85 83 81 79 77 76 76 75 74 73 73 71 68 65 61 57 53 51 51 48 44 41 43 47 47
35 30 25 21 17 14 13 13 15 18 22 26 30 33 37 41 44 46 50 53 54 54 54 53 53 55 56 57 59 66 75 83 90 93 95 96 97 98 98 100 100 100 99 99 99 100 101 101 101 101 101 100 98 97 96 94 91 89 88 88 88 88 88 85 83 82 81 79 78 78 79 79 79 76 72 68 64 60 56 52 50 51 50 46 42 42 46 47
36 30 25 21 17 14 12 12 14 17 20 24 27 30 33 37 40 44 49 51 52 53 52 51 51 52 53 54 56 61 68 76 81 85 90 93 96 97 98 99 100 101 100 100 101 102 102 102 102 102 103 102 100 100 100 97 95 94 93 91 90 90 89 86 84 83 82 81 81 80 81 83 81 76 72 69 65 62 60 55 52 52 52 49 44 43 45 46
37 32 26 21 17 14 12 12 13 15 19 22 26 29 31 35 38 43 47 49 50 51 51 51 52 52 53 54 56 59 64 68 72 78 83 89 93 95 97 98 100 102 103 103 103 103 103 103 103 103 104 103 102 103 102 100 99 99 97 94 91 90 89 87 86 85 83 83 82 81 83 85 82 76 74 72 68 66 63 58 55 53 53 53 48 45 45 46
39 33 28 22 18 15 12 11 12 14 17 20 23 26 29 33 37 40 43 46 47 49 50 53 54 54 55 56 57 59 62 64 66 70 76 82 87 90 94 97 99 101 104 105 105 105 105 105 105 104 104 104 104 104 103 102 102 102 101 98 94 91 89 88 87 86 85 85 83 83 86 86 82 79 77 74 72 69 65 61 57 55 54 54 52 48 46 46
41 36 30 24 19 16 13 11 11 13 15 18 21 24 27 31 35 37 39 41 44 47 50 53 54 54 54 55 56 58 60 61 61 64 68 73 78 83 89 94 97 101 103 105 106 106 106 106 106 106 105 105 106 106 105 103 103 102 102 101 99 96 93 91 89 88 88 87 86 86 87 87 83 81 80 77 75 71 68 65 61 58 56 55 55 52 49 48
45 38 33 28 22 17 14 12 11 12 13 16 19 22 26 30 33 34 36 39 42 45 48 51 53 52 53 55 56 57 59 60 59 60 61 65 71 78 83 89 94 99 102 105 106 108 108 108 108 108 107 107 108 108 107 105 104 103 103 104 103 100 98 96 94 92 90 90 89 88 88 87 85 84 83 80 77 74 71 68 65 62 59 57 57 57 54 52
49 42 36 31 26 20 16 13 12 12 13 14 17 20 24 28 30 32 35 38 41 43 45 48 50 52 54 56 57 58 60 60 60 59 59 61 66 72 78 84 89 95 99 103 105 107 108 109 109 109 109 109 109 110 109 107 106 105 104 105 105 104 102 100 98 96 93 91 90 89 89 89 87 86 86 83 80 76 73 71 68 65 63 61 60 60 58 55
52 45 39 34 30 25 20 16 13 12 12 14 16 18 21 25 28 30 33 37 39 41 43 45 48 50 53 55 57 59 60 61 60 60 60 60 63 67 73 79 84 88 93 98 102 105 106 108 110 110 110 110 110 110 110 108 106 105 105 105 106 105 105 103 101 99 96 94 92 91 91 92 90 89 88 86 83 78 74 72 71 69 67 65 63 61 60 57
54 48 42 37 32 28 25 20 16 13 12 13 15 17 20 22 25 28 30 34 37 39 41 44 46 48 50 52 55 58 60 61 60 60 60 61 62 64 67 72 77 82 87 92 97 101 104 106 109 110 111 111 111 111 111 109 107 106 106 106 106 106 106 105 104 102 100 98 95 93 93 93 93 92 90 88 84 79 74 74 75 73 71 68 65 63 62 60
57 51 46 40 34 30 27 24 20 17 13 12 13 15 18 20 23 25 28 30 33 36 39 42 44 46 47 49 52 56 58 60 61 61 61 62 63 63 65 67 71 76 82 86 91 96 101 104 107 109 111 112 112 112 112 111 109 108 108 108 108 107 106 106 105 104 103 101 100 98 97 96 94 92 90 89 86 80 77 78 79 76 73 71 68 65 64 63
59 54 48 43 38 33 29 25 22 19 17 15 13 14 15 18 20 23 26 28 30 33 36 39 41 44 45 47 49 52 55 58 60 60 61 62 63 63 64 65 68 72 76 81 85 90 95 100 104 106 109 111 113 113 114 113 111 110 109 109 109 109 108 107 107 106 105 104 103 103 102 99 95 91 90 90 87 83 80 80 79 76 75 74 71 68 67 65
59 56 51 46 40 36 31 27 24 21 18 16 15 15 15 16 17 20 23 25 28 30 32 35 37 40 42 44 46 48 51 53 55 57 59 60 62 64 65 65 67 70 73 76 80 84 89 94 99 103 106 109 112 114 115 115 113 111 110 110 110 110 109 109 109 108 107 106 105 106 105 102 97 93 90 91 89 85 82 81 79 77 78 78 75 72 70 69
59 56 52 48 43 38 34 30 27 24 20 17 16 15 15 15 16 17 19 21 24 27 29 32 34 37 39 42 44 46 48 50 52 54 55 57 59 62 64 66 68 70 72 75 77 80 84 89 93 98 102 106 111 113 114 115 114 112 111 111 111 112 112 112 111 111 110 108 107 106 106 104 100 96 93 92 91 88 84 82 82 81 82 82 80 77 75 73
59 55 51 47 44 40 37 33 30 27 24 22 19 17 15 15 15 16 17 18 20 22 25 28 30 33 37 40 42 44 46 48 50 52 53 55 56 59 62 65 67 70 72 74 76 78 81 84 88 92 96 102 108 111 113 114 114 112 112 113 114 114 114 114 113 112 111 110 109 107 106 106 103 99 97 95 93 91 87 85 85 86 84 82 83 83 80 76
Wind_Direction
263 262 260 257 255 253 252 250 249 247 246 245 243 240 237 234 232 229 226 223 220 219 219 219 218 217 217 216 214 211 211 212 213 214 216 217 217 216 215 214 213 211 210 211 212 213 214 215 216 215 214 214 216 217 218 218 219 221 221 219 219 218 213 209 209 212 205 202 212 212 220 234 244 258 266 261 258 263 271 283 290 273 290 322 335 343 344 343
264 262 260 258 256 254 252 250 248 247 246 244 243 240 238 235 232 230 228 224 222 220 219 220 219 219 218 219 218 215 213 212 212 214 216 217 218 218 218 217 215 214 213 212 213 214 214 215 216 216 215 215 216 218 219 220 220 221 221 220 219 219 217 213 214 220 219 222 225 219 221 233 242 252 258 262 264 268 274 281 287 286 297 316 326 334 337 338
264 263 261 259 257 255 253 251 249 247 245 244 242 240 238 236 233 231 229 226 224 222 221 220 221 221 220 220 220 219 215 213 212 213 216 217 217 219 219 219 218 217 215 215 214 215 215 216 217 217 217 217 218 219 220 221 222 223 224 223 221 222 221 219 220 223 224 227 229 224 221 231 245 245 247 258 263 266 271 276 280 283 291 304 315 321 328 335
264 262 260 259 257 255 254 252 250 247 245 243 242 240 238 236 234 232 230 228 226 224 222 221 221 222 222 221 221 221 218 214 214 214 216 217 217 219 220 220 220 219 218 217 216 216 217 217 218 218 218 218 219 220 221 222 223 224 226 226 224 224 224 223 223 225 226 229 231 232 228 228 235 236 243 252 258 265 268 270 274 278 283 290 303 310 320 329
264 262 261 259 256 255 253 251 250 248 246 243 242 240 239 237 235 233 231 229 227 225 223 222 222 222 222 222 222 222 220 216 216 216 216 217 217 218 220 220 221 221 220 219 219 218 218 218 219 219 220 219 220 220 221 223 224 225 226 227 226 225 227 226 225 226 227 229 232 237 237 233 236 240 249 256 265 270 269 270 274 280 279 282 298 305 315 326
264 263 262 260 257 255 253 251 249 248 246 244 242 240 239 237 236 234 232 230 228 226 225 224 223 222 222 223 223 224 222 219 218 218 217 217 217 218 219 220 221 221 221 221 221 220 220 219 220 220 220 221 221 222 222 223 224 225 226 228 228 227 229 229 228 229 229 231 233 237 240 240 245 247 248 256 264 269 268 268 273 281 278 284 301 307 316 325
264 263 262 260 259 257 254 252 250 248 246 244 242 240 238 237 236 234 233 231 229 228 226 225 224 223 223 223 224 225 224 220 219 221 220 218 218 218 219 220 221 221 221 222 222 222 222 221 221 221 221 222 222 223 224 224 225 225 226 227 228 228 229 230 230 231 231 233 234 237 241 243 247 247 246 248 237 246 260 261 266 269 268 287 304 310 319 325
264 263 262 260 259 257 256 253 251 249 247 245 243 241 239 237 236 234 233 232 230 229 228 226 224 224 224 223 224 225 225 221 219 222 223 220 219 220 219 220 221 221 221 222 223 223 223 223 222 222 223 223 223 224 225 226 226 227 228 228 229 229 228 229 231 231 231 234 235 236 240 243 246 246 246 247 235 238 248 253 262 260 263 287 300 309 319 323
266 264 262 261 259 258 256 255 252 250 248 246 244 242 239 238 236 234 233 232 231 230 229 228 226 225 224 224 224 225 225 223 219 221 225 223 221 221 220 220 221 222 221 221 222 223 224 224 224 224 224 224 225 226 227 227 227 228 229 230 230 231 229 229 231 232 231 233 235 236 239 242 245 246 245 249 246 246 251 256 265 266 271 288 298 309 316 320
268 266 264 261 260 258 257 255 253 251 249 247 245 243 241 239 237 235 234 232 231 230 229 228 228 226 225 224 224 225 225 224 220 220 224 225 223 222 221 220 221 222 222 221 221 223 224 224 225 226 226 226 226 227 227 228 229 229 230 231 231 233 232 232 233 234 234 235 236 236 238 240 244 247 246 250 252 253 257 263 269 270 277 288 298 308 311 315
269 268 266 263 261 259 257 255 254 252 250 248 246 244 242 240 238 236 234 233 231 230 229 229 228 228 227 225 225 225 225 224 221 220 223 225 224 224 223 222 220 221 223 223 222 222 223 224 225 226 226 227 227 227 228 229 230 230 231 232 232 233 234 235 236 237 238 239 239 238 239 242 245 247 247 250 254 254 256 261 265 269 276 282 290 303 309 312
270 269 267 266 264 261 259 256 254 252 251 249 247 245 243 241 239 237 235 234 232 231 229 228 228 228 227 227 226 225 225 225 223 221 222 224 224 224 224 224 221 221 223 224 223 222 222 223 224 225 226 227 228 228 229 230 231 231 231 232 232 232 233 235 237 238 239 241 242 241 241 243 246 249 249 252 255 255 256 259 264 268 273 276 281 295 305 308
268 267 266 266 265 263 261 258 255 253 250 249 247 246 244 242 241 239 237 235 233 232 230 229 228 228 228 227 227 226 225 225 223 222 222 224 224 224 224 225 224 222 222 223 224 224 222 222 224 224 225 226 227 228 229 230 231 232 232 233 233 232 232 234 237 239 240 241 242 243 242 242 246 249 251 253 254 256 258 260 265 268 271 274 278 289 298 301
267 265 264 264 263 263 262 260 258 255 252 249 247 246 244 243 241 240 238 236 234 233 231 230 229 228 228 227 227 226 226 226 224 223 223 223 224 224 224 225 225 224 222 222 223 224 223 222 223 224 224 225 227 228 229 230 231 232 233 234 234 233 233 233 236 240 241 241 242 243 243 243 245 248 251 253 254 256 259 262 265 267 270 273 278 286 291 294
269 266 264 262 262 262 261 261 260 258 255 251 246 244 244 242 241 240 239 237 235 234 232 231 230 228 228 227 227 226 226 226 225 224 223 223 224 224 223 224 225 225 224 223 222 223 223 223 223 223 224 224 226 227 228 229 231 232 233 234 234 234 234 234 235 238 241 242 243 244 244 244 245 247 250 252 255 257 258 261 264 266 269 272 276 281 285 288
274 270 266 263 261 261 260 260 260 259 257 254 249 244 242 241 240 239 239 237 236 234 233 232 231 229 228 227 226 226 226 226 226 225 224 224 223 224 223 223 224 224 225 224 223 223 223 223 223 222 223 224 225 226 227 229 230 231 232 234 235 234 235 235 235 237 240 241 243 244 244 244 244 245 247 250 253 256 257 260 262 264 267 270 273 276 279 282
281 275 270 266 262 260 259 259 258 258 257 255 253 248 243 240 239 238 237 237 236 234 233 232 231 230 229 227 226 226 226 226 226 225 225 224 224 224 224 223 223 224 224 225 225 224 223 224 224 222 222 223 224 225 226 228 229 230 232 234 235 235 235 236 236 237 239 240 242 244 245 245 245 246 247 248 250 254 256 257 259 262 265 266 268 271 273 275
288 280 274 269 265 261 259 258 256 256 256 255 254 251 247 241 238 237 236 235 235 234 233 232 231 230 230 228 227 227 227 226 226 226 226 225 224 224 224 224 223 223 223 224 225 225 224 224 224 224 222 222 223 223 225 227 229 230 231 233 235 235 234 235 235 236 238 239 240 243 245 245 246 247 248 249 250 253 255 257 258 260 262 263 264 265 266 268
292 285 278 272 266 263 260 258 256 255 254 254 253 251 249 245 240 237 235 234 233 233 232 232 231 230 230 229 228 227 226 226 226 225 225 225 225 224 224 224 224 223 223 223 224 225 225 225 225 225 223 222 222 223 225 227 229 229 230 232 234 234 234 233 234 234 236 237 239 242 244 245 246 247 249 250 251 253 255 256 257 258 259 260 260 261 262 262
295 289 282 275 269 264 261 259 256 254 253 252 251 249 248 246 243 238 235 233 232 231 231 231 230 229 229 228 228 227 226 226 226 225 225 225 225 225 225 224 224 224 223 223 223 223 224 225 225 225 224 224 223 224 225 226 227 228 229 230 232 234 234 233 233 233 234 235 237 240 243 244 245 246 248 249 251 252 253 254 254 255 255 256 257 258 257 257
298 292 285 278 272 266 262 259 257 254 251 250 248 247 246 245 243 240 235 232 231 229 229 229 229 229 228 228 228 227 227 226 226 225 225 225 225 225 225 225 224 224 224 223 223 223 223 224 225 226 226 225 225 225 225 225 225 227 228 229 231 233 235 234 232 232 232 234 235 237 241 243 243 245 247 248 249 250 251 251 252 252 252 253 253 253 252 251
300 294 287 280 274 269 264 260 257 253 250 248 247 245 244 242 241 239 236 233 230 229 228 228 228 227 227 228 227 227 227 226 226 226 225 225 225 225 225 225 225 225 224 224 223 223 223 224 225 226 226 226 225 225 225 225 224 225 227 228 230 232 234 235 234 232 232 233 235 236 238 242 242 243 245 246 247 249 250 250 251 251 250 249 248 247 247 247
301 295 288 282 275 270 265 261 256 252 249 247 245 243 241 240 239 238 235 232 230 228 227 227 226 226 226 227 226 226 226 226 226 226 226 225 225 225 225 225 225 225 225 224 224 223 223 223 224 225 226 226 226 226 226 226 224 223 225 227 228 230 233 235 235 233 231 230 232 234 236 241 243 243 244 246 246 247 248 249 250 249 248 246 242 242 243 243
302 296 289 282 276 270 265 260 256 252 248 245 244 242 240 238 236 235 233 231 229 227 226 226 225 225 225 225 225 225 226 226 226 226 225 225 225 225 225 225 225 225 225 225 224 223 223 224 224 224 225 226 227 226 227 227 225 223 224 226 228 229 232 235 236 234 231 228 229 232 235 238 242 242 241 244 245 246 247 246 246 245 244 242 240 239 239 238
303 296 289 283 277 271 265 260 255 251 248 245 243 241 239 237 234 233 232 230 228 226 225 225 225 224 224 224 224 224 225 225 226 226 225 225 225 225 224 224 225 225 225 224 224 224 224 224 224 224 225 225 226 226 227 227 226 224 223 225 227 228 230 233 235 235 232 229 228 230 232 233 238 240 239 241 244 243 243 244 242 241 240 239 239 236 234 233
304 297 290 283 278 272 265 260 255 251 248 244 242 240 238 236 234 232 230 229 227 225 225 225 225 224 223 223 223 224 224 224 225 226 225 225 225 225 225 224 225 225 225 224 224 224 225 225 224 225 225 225 225 226 226 227 227 225 224 225 226 228 229 232 235 236 234 231 227 226 228 228 233 239 238 237 240 239 239 240 238 237 237 236 235 231 229 229
306 299 292 285 279 272 266 260 255 251 247 244 241 239 237 235 233 232 230 228 227 225 224 224 224 224 223 223 223 223 223 223 224 225 225 224 225 225 225 225 225 225 225 225 225 225 226 225 225 225 225 225 225 226 226 227 227 226 225 225 227 228 229 231 233 235 235 232 228 225 226 226 228 236 236 232 234 235 234 236 236 235 233 233 231 227 225 225
308 302 294 287 280 273 266 259 254 249 246 243 239 237 235 234 233 231 230 228 227 225 224 223 224 224 223 223 223 222 222 222 223 224 224 224 224 225 225 225 225 224 224 224 225 225 226 226 226 226 226 227 226 226 226 226 226 226 226 226 227 228 229 230 232 233 234 233 229 224 224 224 224 232 236 234 233 233 232 233 234 234 232 230 229 225 221 219
311 304 296 289 281 273 266 258 252 247 243 240 237 234 233 233 232 231 230 228 227 225 224 223 223 223 224 224 223 223 222 222 223 224 224 224 224 224 225 225 225 225 224 224 224 225 225 225 226 226 226 227 227 227 226 226 226 227 227 226 227 228 229 230 231 232 233 233 229 224 220 220 220 225 232 234 235 234 231 231 232 233 232 228 225 222 218 215
314 306 298 290 282 273 265 257 251 246 241 238 235 233 231 231 230 230 229 228 227 226 225 224 223 223 223 224 224 223 223 222 223 223 223 224 224 224 224 225 225 225 224 224 224 225 224 224 225 225 225 225 226 227 226 226 226 226 227 227 226 228 229 230 230 231 232 232 230 225 219 217 217 219 223 228 234 233 230 230 231 231 231 225 220 217 213 212
316 308 300 292 283 273 263 256 250 245 240 236 233 231 230 230 229 229 229 229 228 227 225 225 224 224 223 224 224 224 223 223 223 223 223 224 224 224 224 224 225 225 225 225 225 225 225 225 225 226 225 225 225 226 225 225 225 225 226 226 226 227 228 229 230 230 230 230 230 227 220 217 217 216 216 221 231 234 229 228 229 229 228 222 217 214 209 207
319 312 303 294 284 272 262 255 249 244 239 235 232 230 230 230 229 229 229 229 229 227 226 225 225 224 223 223 224 224 224 224 224 224 224 224 224 224 224 224 224 225 225 225 226 226 225 225 226 226 226 226 226 226 226 225 224 225 225 225 225 226 226 227 228 228 229 229 229 229 223 218 218 217 215 218 228 235 230 226 227 228 227 220 215 215 211 206
322 316 308 298 286 273 262 254 248 243 238 234 231 230 229 230 229 229 229 229 228 228 227 227 226 225 224 223 224 224 225 225 225 225 224 224 224 224 224 224 224 224 224 225 226 226 226 225 225 226 226 226 227 227 227 226 225 225 225 225 225 225 225 225 226 226 227 227 228 229 225 219 218 218 215 215 223 233 232 227 226 226 226 220 215 217 214 209
327 321 314 304 291 276 263 254 247 242 238 234 232 230 229 228 228 228 228 228 227 227 227 227 226 225 224 223 224 224 224 225 225 225 225 225 224 224 224 224 224 224 224 224 225 226 225 225 225 226 226 226 227 228 228 227 227 227 227 226 226 225 224 224 224 224 225 226 227 229 227 221 218 218 217 215 220 229 232 229 226 224 223 221 216 217 216 211
331 327 320 311 297 280 265 255 247 241 237 234 232 230 228 227 226 227 228 227 226 225 226 226 225 225 224 223 224 224 224 225 225 226 226 225 224 224 224 225 225 225 225 224 225 226 226 225 225 226 226 226 227 228 228 228 228 228 228 227 227 227 226 225 224 224 224 226 227 229 227 223 219 219 218 217 217 223 228 229 228 225 222 220 217 217 217 213
336 332 326 316 303 285 268 256 247 241 237 233 231 229 226 225 225 225 226 226 226 226 226 227 226 226 225 225 224 225 225 225 226 226 226 226 225 225 225 226 226 226 226 226 226 226 226 226 226 226 226 226 227 227 228 227 227 227 227 227 226 227 227 226 225 225 224 225 227 228 227 224 222 220 219 218 216 218 222 225 227 227 223 219 216 216 216 213
340 337 331 322 309 292 272 257 248 241 237 232 230 228 226 225 225 224 225 227 228 228 228 228 228 227 227 227 226 226 226 226 226 226 226 226 225 225 225 226 226 227 226 226 227 227 227 227 227 226 226 226 227 227 227 227 226 226 226 226 226 226 226 226 225 225 224 225 226 227 227 224 223 222 219 218 217 216 218 220 224 228 226 220 216 215 214 211
345 341 336 328 316 299 279 262 249 240 236 231 228 226 224 225 226 226 227 228 228 229 229 228 228 227 227 228 228 227 228 228 227 226 226 226 226 226 226 226 226 227 227 226 227 228 228 228 227 227 227 227 227 228 229 228 227 226 226 226 226 226 226 226 225 224 223 224 224 226 226 224 223 223 220 219 218 218 218 218 222 228 229 223 216 214 213 210
351 347 342 335 323 307 288 267 252 241 235 231 229 227 225 226 227 227 228 228 228 229 229 228 228 227 226 227 227 228 228 229 228 227 226 226 226 226 226 226 226 226 227 227 227 228 228 228 227 227 227 226 227 228 229 229 228 227 227 226 225 225 225 225 225 224 223 222 222 223 225 225 224 223 222 220 220 221 220 218 218 226 232 228 220 215 214 212
356 352 347 340 330 316 298 275 257 245 237 233 231 229 227 227 226 227 228 229 228 228 229 228 228 229 228 227 227 228 229 229 229 228 227 226 226 225 225 226 226 226 226 226 227 228 228 228 228 227 227 226 226 227 228 228 228 228 227 226 225 225 225 224 224 224 223 222 221 222 224 226 225 224 224 222 220 220 220 217 214 219 229 231 224 218 215 215
359 357 352 346 338 325 307 284 264 250 242 236 232 230 228 227 227 227 228 229 228 228 228 228 227 227 227 227 226 228 229 229 229 228 227 226 225 225 225 225 226 226 226 226 226 227 227 227 228 228 227 227 226 227 227 228 228 228 228 227 226 226 226 225 224 224 223 223 222 221 223 226 226 224 223 222 220 218 219 218 213 213 223 230 228 221 217 217
2 1 358 352 345 335 317 294 273 256 246 241 237 233 230 229 229 229 230 230 230 229 228 228 227 225 226 226 226 227 228 228 227 228 228 226 225 225 225 225 225 226 226 226 226 226 227 227 227 227 227 227 227 226 227 227 228 228 228 227 226 226 226 226 225 224 224 223 222 221 223 226 226 224 223 222 221 218 217 218 215 212 217 226 230 225 219 217
4 3 1 358 352 345 331 308 285 264 252 244 240 237 233 232 232 232 232 232 231 230 229 229 229 227 227 228 228 229 231 230 228 228 228 227 226 225 225 225 226 226 227 226 226 226 226 227 227 227 227 227 228 227 226 226 227 228 229 228 227 226 226 226 225 224 224 223 222 221 222 224 225 225 224 222 221 219 216 216 216 213 213 220 228 228 222 218
5 4 3 2 359 353 342 322 300 278 261 249 242 239 236 235 234 233 233 233 233 232 230 230 230 228 228 229 229 230 232 231 229 228 228 228 226 224 224 225 225 226 227 226 226 225 226 226 227 227 227 227 228 227 226 225 226 226 228 228 227 226 225 225 225 224 223 223 222 222 222 223 224 225 225 223 221 218 216 215 216 214 212 214 223 228 225 220
5 4 4 4 2 359 351 336 318 294 274 259 247 242 240 238 237 234 233 234 234 234 233 232 232 230 228 229 230 230 231 231 230 227 227 227 227 225 223 224 225 226 227 227 226 225 226 226 227 227 227 227 227 228 227 226 226 226 226 228 228 227 226 225 225 225 223 222 222 222 222 223 223 223 224 223 221 218 215 214 214 215 213 212 218 225 227 224
5 4 4 4 4 1 356 347 333 313 291 275 260 250 244 242 240 237 235 235 235 235 235 234 234 232 230 229 231 232 232 231 231 229 227 227 227 226 224 224 224 225 227 228 227 226 226 226 227 228 227 227 228 228 228 227 226 226 226 227 228 227 226 225 225 225 224 223 222 222 222 222 221 222 223 223 221 217 215 214 213 214 214 213 214 221 226 226
4 4 4 4 4 2 358 352 343 329 308 288 273 263 256 250 246 242 239 238 237 237 237 236 236 235 233 231 231 233 234 233 231 230 229 227 227 227 226 225 225 225 226 227 228 227 226 226 227 228 228 228 227 228 228 227 226 226 227 227 228 228 227 226 225 225 225 224 223 222 222 222 221 221 222 223 222 218 214 214 214 213 214 214 214 217 223 226
3 3 4 3 3 3 0 356 348 338 325 306 286 272 264 258 254 251 246 243 240 239 239 239 239 238 236 234 232 233 235 235 233 231 230 229 228 227 226 225 226 226 227 227 227 228 227 226 226 227 228 228 228 228 228 227 226 226 226 226 227 227 227 227 226 225 224 224 224 223 223 222 222 221 221 222 222 218 214 215 215 212 212 214 214 215 220 224
2 2 2 2 2 1 0 358 353 344 334 321 305 287 273 263 257 254 252 249 246 243 242 242 242 241 241 239 237 236 236 236 236 234 232 230 230 229 228 226 226 227 228 228 227 228 228 228 227 227 228 229 229 228 228 227 226 226 226 227 227 227 227 227 226 225 224 224 224 224 223 222 221 221 221 222 222 218 214 215 215 213 213 214 214 214 217 221
2 1 0 0 360 360 359 358 356 351 342 329 317 305 292 279 267 259 254 252 250 248 246 245 244 244 243 243 242 240 239 239 239 238 236 233 231 231 229 227 226 227 228 229 229 228 228 228 228 227 227 228 229 229 229 228 226 225 226 226 227 227 227 226 226 225 224 223 223 224 224 223 221 220 220 222 222 219 215 214 214 214 213 213 213 213 215 218
3 1 359 358 358 358 358 358 356 353 349 340 329 317 305 294 284 274 265 257 253 250 248 247 246 245 245 244 243 243 242 241 241 240 239 237 234 233 232 230 228 227 228 229 230 229 228 228 228 228 228 228 229 229 229 229 227 226 225 226 226 227 227 227 226 225 224 223 222 224 224 224 222 220 220 221 221 219 215 213 214 215 213 212 212 213 214 215
3 2 0 358 357 357 357 357 356 354 352 347 341 331 320 308 297 289 279 270 263 257 252 249 247 245 244 244 243 243 242 241 241 240 239 238 236 234 233 232 231 229 228 229 230 230 230 229 229 228 228 229 229 228 229 229 229 227 226 225 226 226 227 227 226 225 224 223 222 222 223 224 223 220 219 220 220 219 216 213 213 215 213 211 211 212 213 214
Height
10917 10918 10918 10919 10920 10920 10921 10922 10923 10925 10926 10928 10929 10931 10933 10935 10937 10939 10941 10943 10945 10947 10948 10950 10951 10952 10954 10955 10956 10958 10959 10961 10964 10966 10968 10969 10971 10973 10975 10977 10979 10981 10984 10986 10988 10990 10992 10994 10996 10997 10999 11001 11003 11004 11005 11007 11009 11010 11013 11015 11016 11018 11020 11022 11022 11022 11023 11024 11024 11024 11024 11025 11024 11024 11024 11023 11022 11023 11024 11023 11022 11020 11017 11016 11015 11014 11013 11013
10912 10912 10913 10914 10914 10915 10916 10917 10918 10919 10921 10922 10924 10926 10928 10930 10932 10934 10936 10938 10940 10942 10944 10945 10947 10948 10950 10951 10952 10954 10955 10957 10960 10963 10964 10965 10967 10969 10971 10974 10976 10978 10980 10983 10985 10987 10989 10991 10992 10994 10996 10999 11000 11002 11003 11005 11007 11009 11010 11012 11013 11015 11018 11020 11020 11020 11021 11022 11022 11023 11023 11024 11023 11024 11023 11022 11022 11022 11023 11022 11021 11020 11017 11016 11015 11014 11014 11013
10906 10906 10907 10908 10908 10909 10910 10911 10912 10913 10915 10917 10918 10920 10922 10924 10926 10928 10930 10932 10935 10937 10939 10941 10942 10944 10945 10947 10948 10949 10951 10954 10956 10958 10959 10960 10963 10965 10967 10970 10972 10974 10977 10979 10981 10983 10986 10988 10989 10992 10994 10997 10998 11000 11001 11003 11005 11007 11008 11009 11011 11014 11015 11017 11018 11019 11020 11020 11020 11021 11022 11022 11022 11023 11022 11021 11021 11021 11021 11021 11020 11019 11017 11016 11015 11014 11014 11014
10900 10900 10900 10901 10902 10902 10904 10905 10906 10907 10909 10911 10912 10914 10916 10918 10920 10922 10924 10926 10929 10931 10933 10936 10937 10939 10941 10942 10944 10945 10947 10950 10952 10953 10954 10955 10958 10960 10963 10966 10968 10970 10973 10975 10978 10980 10983 10985 10987 10989 10992 10994 10996 10997 10999 11001 11002 11004 11006 11007 11009 11011 11012 11014 11016 11016 11017 11019 11019 11019 11020 11020 11020 11021 11021 11020 11021 11020 11020 11020 11019 11018 11017 11016 11016 11015 11015 11015
10894 10893 10894 10894 10895 10895 10896 10898 10899 10900 10902 10904 10906 10908 10909 10911 10913 10915 10917 10920 10922 10925 10928 10930 10932 10933 10935 10937 10939 10940 10942 10946 10948 10948 10949 10951 10953 10956 10958 10961 10963 10966 10969 10972 10974 10977 10979 10982 10984 10986 10988 10991 10992 10994 10996 10997 10999 11001 11003 11004 11006 11008 11009 11011 11013 11014 11015 11016 11017 11017 11017 11017 11018 11019 11019 11019 11020 11020 11019 11018 11018 11017 11016 11017 11016 11015 11015 11015
10888 10887 10887 10887 10888 10888 10889 10890 10891 10893 10894 10896 10899 10901 10903 10905 10907 10909 10911 10913 10916 10918 10921 10923 10926 10928 10930 10932 10933 10935 10937 10941 10943 10943 10945 10947 10949 10952 10954 10956 10958 10961 10964 10967 10970 10973 10976 10978 10980 10982 10985 10987 10989 10991 10992 10994 10995 10997 10999 11000 11003 11004 11006 11008 11010 11011 11012 11013 11014 11015 11015 11015 11016 11017 11018 11018 11020 11020 11017 11015 11017 11016 11015 11016 11016 11016 11015 11015
10881 10880 10880 10880 10880 10881 10882 10883 10884 10885 10886 10888 10891 10893 10895 10897 10900 10902 10904 10906 10909 10912 10914 10917 10919 10921 10924 10926 10928 10929 10931 10934 10938 10939 10941 10943 10945 10947 10949 10951 10952 10956 10960 10962 10965 10968 10971 10973 10976 10978 10980 10983 10985 10987 10989 10990 10992 10993 10995 10996 10998 11000 11002 11004 11006 11007 11009 11010 11011 11012 11012 11013 11014 11016 11016 11016 11018 11017 11015 11015 11016 11015 11015 11016 11017 11016 11016 11015
10873 10873 10873 10872 10873 10873 10874 10876 10877 10878 10879 10881 10883 10885 10887 10890 10892 10894 10897 10899 10902 10905 10907 10910 10912 10915 10917 10920 10922 10923 10924 10928 10934 10936 10937 10939 10941 10942 10944 10946 10948 10951 10955 10957 10960 10963 10966 10969 10972 10974 10976 10979 10982 10984 10985 10986 10988 10990 10991 10993 10994 10996 10998 11001 11002 11003 11006 11006 11008 11009 11010 11011 11012 11014 11015 11014 11014 11014 11014 11015 11014 11015 11016 11017 11017 11017 11017 11016
10864 10864 10865 10864 10864 10865 10866 10867 10869 10870 10871 10873 10875 10877 10879 10882 10884 10887 10889 10892 10895 10898 10900 10903 10905 10908 10910 10913 10915 10916 10917 10922 10929 10932 10932 10934 10936 10937 10939 10941 10943 10946 10949 10952 10955 10957 10961 10964 10967 10970 10973 10976 10978 10979 10980 10982 10984 10986 10987 10989 10990 10992 10995 10997 10998 10999 11002 11003 11005 11007 11008 11010 11010 11012 11012 11012 11012 11012 11013 11014 11014 11016 11017 11017 11018 11018 11017 11016
10855 10854 10855 10855 10855 10856 10856 10858 10859 10861 10863 10865 10867 10869 10871 10873 10876 10879 10881 10884 10887 10890 10893 10895 10898 10900 10903 10906 10908 10910 10912 10916 10923 10927 10927 10928 10930 10932 10934 10937 10939 10941 10943 10946 10949 10952 10956 10959 10962 10965 10968 10970 10972 10974 10976 10977 10979 10981 10983 10985 10986 10988 10992 10995 10996 10997 10998 11000 11002 11005 11006 11008 11008 11009 11010 11010 11010 11011 11012 11013 11015 11016 11017 11018 11018 11018 11018 11017
10846 10845 10844 10845 10845 10845 10846 10848 10849 10851 10853 10855 10858 10860 10863 10865 10868 10870 10873 10876 10879 10882 10885 10888 10890 10893 10895 10898 10900 10903 10906 10910 10916 10920 10920 10921 10924 10927 10929 10932 10935 10937 10938 10940 10944 10948 10951 10954 10957 10960 10962 10964 10967 10970 10972 10973 10974 10976 10978 10980 10982 10985 10989 10993 10994 10995 10996 10997 11000 11002 11004 11006 11005 11006 11008 11008 11008 11009 11012 11014 11015 11016 11017 11017 11017 11018 11018 11017
10837 10836 10835 10834 10834 10834 10835 10837 10838 10840 10842 10845 10848 10851 10854 10856 10859 10862 10865 10868 10871 10874 10877 10880 10882 10885 10887 10890 10893 10897 10900 10903 10908 10912 10913 10914 10918 10922 10924 10927 10930 10932 10933 10936 10939 10943 10946 10949 10951 10954 10956 10959 10962 10965 10967 10968 10968 10971 10973 10975 10977 10981 10985 10989 10990 10992 10993 10994 10996 10999 11002 11003 11003 11003 11005 11006 11005 11007 11009 11012 11014 11015 11016 11016 11017 11018 11018 11017
10828 10826 10825 10823 10823 10823 10823 10825 10826 10829 10831 10834 10837 10840 10844 10847 10850 10853 10856 10859 10862 10865 10869 10872 10874 10877 10879 10882 10885 10890 10893 10895 10900 10904 10906 10908 10912 10916 10919 10921 10924 10927 10929 10931 10934 10938 10941 10943 10946 10948 10951 10954 10957 10958 10960 10963 10963 10965 10968 10970 10973 10977 10982 10986 10988 10988 10989 10990 10993 10996 10999 11001 11001 11001 11002 11003 11003 11004 11007 11009 11011 11013 11014 11015 11016 11017 11017 11016
10819 10816 10814 10812 10811 10811 10811 10812 10814 10816 10819 10822 10825 10829 10833 10836 10840 10843 10846 10850 10853 10857 10860 10863 10866 10868 10870 10874 10878 10882 10885 10887 10892 10897 10899 10902 10905 10909 10912 10915 10918 10921 10924 10927 10929 10932 10935 10938 10941 10943 10946 10948 10950 10952 10955 10958 10958 10961 10963 10965 10969 10974 10978 10984 10986 10984 10984 10987 10990 10992 10995 10998 10998 10998 10999 11000 11001 11002 11004 11006 11008 11010 11011 11013 11014 11015 11016 11015
10808 10805 10803 10800 10799 10799 10799 10800 10802 10803 10806 10808 10813 10817 10821 10825 10829 10832 10836 10840 10844 10848 10851 10854 10856 10859 10862 10866 10870 10874 10877 10880 10884 10888 10892 10895 10898 10902 10905 10908 10911 10915 10918 10921 10924 10927 10930 10933 10935 10938 10940 10943 10945 10947 10950 10951 10953 10955 10958 10960 10965 10970 10974 10979 10982 10981 10980 10984 10986 10988 10991 10993 10995 10996 10996 10997 10998 11000 11002 11004 11006 11007 11009 11011 11012 11013 11014 11014
10797 10794 10790 10788 10786 10786 10786 10788 10788 10790 10792 10794 10798 10804 10808 10813 10817 10821 10825 10830 10834 10838 10841 10844 10847 10850 10853 10858 10862 10865 10868 10871 10875 10880 10883 10887 10891 10894 10898 10901 10904 10908 10912 10915 10919 10922 10924 10927 10929 10933 10936 10939 10940 10942 10944 10945 10947 10950 10953 10956 10960 10965 10970 10974 10978 10978 10978 10980 10982 10984 10986 10987 10991 10993 10994 10995 10996 10997 10999 11002 11004 11005 11007 11008 11010 11010 11011 11012
10784 10781 10777 10775 10773 10772 10773 10775 10775 10775 10778 10781 10784 10790 10795 10800 10804 10808 10813 10817 10823 10827 10830 10833 10836 10841 10845 10849 10854 10856 10859 10863 10867 10872 10875 10879 10883 10887 10890 10894 10897 10901 10906 10910 10913 10917 10919 10921 10924 10928 10932 10934 10935 10936 10937 10939 10942 10946 10950 10952 10956 10961 10966 10969 10973 10975 10975 10977 10979 10979 10980 10982 10986 10989 10991 10993 10994 10995 10997 10999 11001 11003 11004 11006 11007 11008 11009 11010
10771 10767 10764 10761 10759 10757 10759 10761 10761 10761 10764 10767 10771 10777 10781 10785 10791 10795 10800 10805 10810 10815 10819 10822 10827 10832 10835 10840 10845 10847 10850 10855 10859 10864 10867 10871 10875 10879 10883 10886 10890 10895 10900 10904 10907 10910 10913 10916 10919 10923 10927 10928 10929 10929 10931 10934 10939 10943 10946 10949 10951 10955 10960 10963 10967 10970 10971 10973 10976 10975 10975 10979 10982 10985 10987 10989 10991 10992 10993 10995 10998 11000 11001 11002 11004 11006 11007 11007
10757 10753 10750 10746 10744 10743 10744 10745 10746 10748 10750 10753 10758 10762 10766 10771 10778 10782 10786 10791 10797 10803 10808 10812 10817 10821 10825 10832 10836 10837 10840 10846 10849 10854 10858 10862 10867 10871 10875 10879 10884 10888 10893 10897 10900 10903 10907 10911 10915 10917 10919 10920 10922 10924 10927 10932 10936 10939 10943 10944 10946 10948 10952 10956 10960 10963 10966 10969 10971 10971 10972 10975 10979 10981 10983 10985 10987 10988 10990 10992 10993 10995 10997 10998 11000 11002 11004 11005
10743 10738 10735 10731 10728 10728 10729 10730 10732 10734 10737 10739 10744 10748 10751 10758 10764 10767 10772 10778 10784 10790 10795 10800 10805 10810 10815 10820 10823 10825 10831 10837 10839 10844 10849 10853 10858 10862 10866 10871 10877 10881 10886 10889 10892 10896 10902 10906 10908 10909 10911 10914 10917 10920 10924 10929 10932 10935 10938 10939 10940 10943 10946 10950 10954 10958 10961 10965 10967 10968 10969 10972 10975 10978 10979 10981 10983 10985 10987 10988 10990 10992 10993 10995 10997 10999 11001 11002
10730 10724 10719 10715 10713 10713 10714 10715 10717 10719 10722 10725 10729 10733 10737 10744 10748 10751 10758 10765 10771 10777 10782 10787 10793 10799 10804 10807 10811 10817 10824 10827 10830 10835 10840 10845 10850 10854 10859 10864 10869 10873 10877 10881 10885 10891 10896 10899 10900 10901 10905 10909 10912 10915 10919 10924 10928 10931 10933 10935 10937 10938 10940 10943 10948 10952 10958 10962 10964 10965 10966 10968 10972 10975 10976 10978 10980 10981 10983 10985 10987 10989 10990 10992 10994 10996 10997 10999
10715 10709 10704 10700 10698 10698 10699 10701 10702 10705 10708 10710 10714 10719 10723 10729 10732 10737 10746 10751 10758 10764 10769 10774 10781 10787 10791 10794 10801 10808 10813 10816 10821 10826 10831 10836 10841 10846 10851 10857 10861 10865 10869 10873 10878 10885 10889 10890 10891 10894 10898 10902 10906 10910 10913 10918 10923 10926 10928 10930 10932 10934 10934 10937 10942 10949 10956 10959 10962 10963 10963 10964 10969 10973 10974 10975 10977 10978 10979 10981 10983 10985 10987 10989 10991 10992 10994 10996
10700 10693 10688 10685 10684 10684 10685 10686 10688 10690 10693 10695 10699 10704 10708 10713 10717 10724 10731 10736 10744 10750 10755 10761 10767 10774 10778 10782 10790 10797 10801 10806 10811 10816 10822 10828 10833 10838 10844 10848 10852 10856 10861 10865 10870 10876 10880 10880 10882 10886 10890 10896 10900 10904 10908 10912 10918 10922 10924 10925 10927 10928 10929 10931 10938 10946 10951 10954 10957 10959 10960 10962 10966 10970 10971 10971 10974 10975 10976 10978 10979 10981 10984 10985 10987 10989 10991 10993
10684 10678 10673 10669 10669 10670 10670 10672 10673 10675 10678 10681 10684 10689 10694 10698 10703 10709 10714 10721 10729 10736 10741 10748 10754 10760 10764 10769 10779 10785 10790 10796 10802 10807 10813 10818 10823 10829 10833 10837 10842 10846 10851 10856 10861 10867 10870 10871 10875 10880 10885 10890 10895 10899 10902 10907 10912 10917 10919 10920 10921 10923 10924 10927 10933 10939 10944 10949 10953 10954 10957 10961 10962 10964 10967 10968 10970 10973 10973 10975 10976 10977 10979 10981 10983 10986 10988 10990
10669 10664 10658 10655 10655 10655 10657 10657 10658 10661 10664 10667 10671 10675 10679 10684 10689 10694 10699 10706 10714 10721 10729 10735 10740 10745 10751 10758 10767 10773 10779 10787 10793 10797 10802 10809 10813 10817 10822 10827 10832 10836 10841 10846 10852 10858 10861 10864 10869 10874 10878 10883 10887 10892 10896 10900 10906 10911 10914 10915 10915 10918 10919 10922 10927 10932 10938 10946 10951 10952 10955 10958 10956 10958 10962 10964 10966 10969 10969 10970 10972 10973 10974 10977 10980 10983 10984 10986
10654 10650 10645 10642 10642 10642 10643 10644 10645 10648 10650 10653 10658 10662 10666 10671 10675 10680 10686 10692 10699 10708 10715 10720 10726 10732 10740 10747 10754 10762 10770 10779 10782 10783 10791 10799 10803 10806 10812 10818 10822 10826 10832 10838 10845 10851 10853 10857 10862 10866 10870 10876 10880 10885 10890 10894 10899 10905 10908 10908 10909 10912 10915 10918 10922 10927 10934 10942 10947 10949 10951 10953 10953 10954 10958 10961 10963 10965 10965 10965 10967 10969 10971 10973 10976 10979 10981 10983
10641 10637 10632 10630 10630 10630 10631 10632 10633 10636 10638 10641 10647 10651 10654 10658 10663 10667 10673 10679 10686 10694 10699 10706 10713 10720 10728 10736 10743 10751 10759 10765 10768 10770 10780 10789 10792 10796 10802 10808 10812 10817 10824 10832 10840 10844 10846 10850 10854 10859 10864 10869 10875 10879 10883 10888 10892 10897 10901 10902 10904 10908 10911 10914 10918 10923 10930 10937 10944 10947 10949 10951 10951 10950 10953 10957 10959 10960 10961 10962 10963 10965 10967 10970 10972 10975 10977 10980
10629 10625 10621 10619 10619 10619 10620 10621 10622 10624 10627 10631 10637 10641 10643 10647 10651 10655 10661 10666 10672 10678 10685 10693 10700 10708 10718 10726 10732 10739 10745 10753 10758 10761 10771 10779 10783 10787 10791 10796 10802 10809 10817 10825 10831 10833 10836 10842 10848 10854 10860 10865 10869 10872 10875 10881 10885 10888 10892 10896 10899 10903 10906 10909 10914 10919 10925 10932 10939 10944 10946 10948 10950 10948 10950 10953 10954 10955 10957 10958 10960 10962 10964 10966 10968 10971 10974 10977
10618 10614 10611 10609 10609 10610 10610 10610 10611 10614 10618 10622 10626 10630 10633 10637 10641 10645 10650 10654 10658 10666 10675 10682 10688 10697 10707 10714 10720 10726 10735 10744 10747 10751 10760 10766 10771 10776 10780 10786 10792 10800 10809 10814 10818 10821 10827 10834 10840 10846 10852 10856 10860 10863 10868 10874 10878 10880 10884 10890 10894 10897 10901 10905 10910 10915 10920 10927 10933 10938 10942 10945 10947 10947 10948 10950 10949 10950 10953 10955 10957 10959 10961 10963 10966 10968 10971 10974
10609 10605 10602 10600 10600 10601 10600 10601 10602 10605 10609 10613 10616 10621 10624 10627 10631 10636 10640 10643 10649 10657 10665 10671 10678 10687 10695 10702 10709 10717 10726 10734 10736 10740 10747 10753 10759 10763 10768 10776 10783 10791 10799 10804 10808 10812 10819 10826 10829 10833 10839 10844 10848 10853 10859 10865 10869 10872 10877 10883 10889 10892 10896 10901 10906 10911 10916 10922 10926 10931 10937 10939 10942 10945 10946 10946 10943 10945 10949 10952 10954 10956 10958 10961 10963 10966 10969 10972
10600 10597 10594 10592 10592 10593 10592 10592 10594 10597 10601 10605 10608 10612 10615 10618 10623 10628 10632 10636 10643 10650 10656 10662 10668 10675 10683 10691 10698 10707 10716 10721 10723 10728 10735 10740 10745 10750 10757 10767 10775 10783 10791 10796 10800 10805 10813 10818 10821 10826 10831 10836 10840 10843 10849 10854 10859 10864 10868 10875 10881 10885 10890 10895 10900 10906 10911 10916 10918 10924 10930 10934 10937 10940 10942 10941 10939 10940 10946 10949 10951 10953 10955 10958 10961 10963 10966 10969
10593 10589 10587 10585 10585 10585 10585 10585 10587 10590 10593 10597 10600 10603 10607 10611 10617 10624 10628 10632 10638 10642 10647 10653 10656 10662 10672 10679 10688 10697 10703 10708 10713 10718 10724 10726 10731 10740 10751 10761 10769 10777 10783 10788 10792 10799 10805 10809 10814 10819 10824 10828 10832 10834 10839 10844 10849 10855 10859 10866 10872 10877 10883 10888 10894 10900 10905 10909 10911 10916 10924 10929 10933 10936 10939 10939 10936 10936 10941 10946 10948 10950 10952 10955 10958 10961 10964 10967
10587 10583 10581 10579 10579 10578 10579 10579 10581 10583 10586 10589 10592 10596 10600 10607 10614 10619 10622 10626 10631 10635 10640 10642 10645 10652 10661 10670 10678 10686 10691 10697 10702 10706 10708 10711 10720 10734 10745 10752 10759 10766 10773 10778 10782 10788 10794 10799 10806 10811 10814 10819 10823 10826 10831 10836 10842 10847 10851 10857 10863 10868 10875 10880 10886 10893 10897 10901 10905 10908 10916 10924 10929 10932 10934 10935 10933 10933 10937 10942 10945 10947 10949 10952 10955 10959 10962 10965
10581 10578 10575 10574 10573 10573 10573 10574 10575 10577 10580 10583 10586 10591 10597 10603 10609 10612 10614 10620 10625 10628 10629 10630 10635 10643 10651 10660 10667 10672 10679 10684 10687 10689 10692 10699 10714 10728 10735 10741 10747 10754 10762 10767 10772 10777 10783 10790 10797 10800 10805 10811 10816 10820 10826 10833 10838 10841 10845 10851 10856 10861 10867 10872 10878 10885 10889 10893 10897 10901 10910 10920 10924 10925 10927 10929 10930 10930 10933 10937 10941 10943 10945 10948 10952 10955 10958 10962
10576 10573 10570 10569 10569 10568 10568 10569 10570 10572 10575 10578 10581 10586 10592 10598 10602 10604 10607 10612 10615 10615 10615 10618 10625 10633 10641 10649 10655 10660 10667 10671 10672 10675 10682 10693 10709 10721 10727 10733 10739 10745 10752 10758 10763 10768 10773 10780 10786 10790 10798 10806 10811 10815 10820 10827 10831 10833 10840 10846 10850 10855 10861 10865 10871 10876 10881 10886 10891 10896 10905 10914 10916 10917 10920 10923 10926 10927 10928 10931 10934 10938 10941 10944 10949 10952 10955 10958
10572 10569 10566 10565 10564 10564 10564 10564 10566 10568 10570 10573 10577 10581 10586 10589 10592 10595 10598 10601 10603 10605 10608 10614 10621 10629 10635 10641 10646 10651 10656 10658 10661 10666 10675 10688 10703 10714 10720 10725 10730 10736 10745 10752 10756 10759 10764 10771 10778 10785 10793 10798 10801 10803 10807 10811 10816 10822 10830 10837 10842 10848 10853 10858 10864 10870 10876 10881 10886 10891 10898 10904 10907 10909 10911 10914 10917 10919 10921 10924 10927 10931 10936 10941 10945 10948 10951 10955
10569 10566 10563 10561 10560 10560 10560 10561 10562 10564 10566 10569 10572 10576 10579 10581 10584 10588 10591 10594 10597 10601 10606 10612 10618 10625 10629 10633 10639 10644 10646 10647 10651 10658 10669 10682 10695 10704 10711 10716 10720 10727 10736 10744 10748 10750 10756 10763 10771 10778 10784 10787 10789 10791 10792 10795 10802 10811 10819 10826 10834 10840 10843 10849 10856 10863 10871 10876 10882 10885 10889 10896 10899 10899 10900 10902 10905 10910 10914 10919 10922 10926 10931 10937 10941 10944 10947 10951
10567 10563 10560 10559 10558 10557 10557 10558 10559 10560 10562 10564 10566 10569 10572 10574 10577 10583 10586 10588 10593 10596 10601 10607 10614 10618 10622 10627 10631 10635 10635 10635 10640 10650 10664 10675 10685 10694 10701 10706 10711 10718 10727 10734 10737 10740 10746 10753 10760 10768 10772 10776 10780 10781 10782 10788 10799 10809 10814 10820 10827 10830 10833 10839 10847 10855 10863 10870 10876 10878 10880 10885 10884 10883 10888 10894 10901 10908 10915 10920 10922 10924 10928 10933 10938 10941 10944 10949
10566 10561 10558 10557 10555 10554 10554 10555 10556 10557 10558 10559 10561 10564 10567 10570 10574 10579 10580 10582 10587 10590 10595 10603 10608 10611 10616 10620 10622 10623 10623 10623 10630 10643 10656 10665 10673 10682 10689 10695 10701 10709 10717 10723 10725 10728 10734 10740 10748 10754 10758 10765 10771 10772 10774 10783 10793 10800 10803 10808 10813 10815 10821 10831 10840 10848 10855 10862 10867 10869 10870 10869 10869 10876 10886 10895 10903 10910 10916 10922 10925 10926 10927 10931 10936 10939 10942 10947
10565 10561 10557 10555 10553 10552 10552 10552 10553 10553 10554 10556 10558 10561 10564 10566 10569 10572 10572 10575 10580 10585 10591 10598 10602 10605 10609 10612 10614 10614 10613 10615 10624 10634 10644 10653 10660 10668 10676 10683 10690 10697 10704 10708 10711 10716 10722 10727 10735 10740 10745 10754 10760 10761 10765 10774 10781 10784 10787 10794 10800 10805 10813 10824 10833 10839 10847 10853 10858 10862 10861 10857 10864 10878 10886 10893 10901 10906 10911 10918 10924 10925 10925 10928 10933 10938 10941 10944
10565 10560 10557 10554 10552 10551 10551 10550 10550 10551 10552 10553 10554 10556 10559 10561 10563 10564 10565 10569 10574 10580 10586 10590 10594 10597 10599 10601 10603 10604 10603 10609 10617 10623 10630 10639 10647 10655 10664 10670 10676 10682 10687 10691 10696 10702 10708 10714 10721 10726 10733 10741 10747 10750 10756 10763 10767 10769 10775 10785 10793 10801 10810 10818 10825 10831 10839 10845 10852 10858 10853 10848 10862 10876 10880 10887 10895 10900 10907 10914 10921 10924 10924 10925 10930 10935 10939 10942
10564 10560 10557 10554 10551 10550 10549 10549 10549 10549 10549 10550 10551 10553 10555 10557 10557 10559 10561 10565 10570 10575 10579 10581 10584 10588 10590 10591 10593 10594 10595 10601 10608 10613 10620 10628 10637 10647 10653 10658 10663 10667 10671 10676 10683 10690 10696 10702 10708 10713 10721 10728 10732 10738 10746 10752 10755 10758 10765 10776 10787 10796 10803 10810 10817 10824 10831 10836 10843 10848 10842 10842 10859 10869 10872 10880 10888 10894 10904 10911 10917 10922 10923 10924 10926 10930 10935 10939
10564 10560 10557 10554 10551 10549 10548 10547 10547 10547 10547 10548 10548 10550 10551 10552 10553 10556 10559 10562 10564 10568 10571 10573 10576 10582 10586 10587 10588 10589 10591 10596 10603 10608 10613 10620 10629 10637 10642 10647 10651 10654 10657 10663 10670 10677 10684 10689 10695 10701 10709 10714 10717 10724 10733 10739 10743 10748 10755 10764 10775 10784 10791 10798 10805 10812 10819 10824 10830 10835 10834 10839 10853 10860 10863 10873 10880 10889 10899 10906 10911 10917 10921 10922 10922 10924 10929 10933
10564 10560 10556 10553 10550 10549 10547 10546 10545 10545 10545 10546 10546 10546 10547 10547 10549 10553 10555 10556 10558 10560 10564 10567 10571 10577 10580 10580 10582 10584 10585 10589 10597 10602 10606 10611 10617 10624 10630 10634 10638 10639 10642 10648 10656 10664 10670 10675 10681 10686 10694 10700 10701 10707 10718 10726 10731 10737 10744 10752 10761 10772 10779 10786 10792 10798 10806 10812 10818 10825 10828 10834 10844 10850 10855 10864 10872 10882 10892 10899 10906 10911 10916 10919 10918 10918 10922 10925
10564 10560 10556 10553 10550 10548 10546 10545 10544 10543 10543 10543 10543 10543 10544 10544 10546 10549 10550 10551 10552 10554 10558 10561 10564 10568 10572 10573 10574 10576 10577 10581 10588 10594 10599 10602 10605 10612 10618 10621 10625 10627 10630 10635 10643 10651 10658 10664 10669 10673 10681 10687 10689 10694 10705 10714 10721 10728 10735 10740 10748 10759 10769 10775 10781 10788 10796 10803 10810 10817 10820 10826 10836 10842 10845 10853 10862 10874 10885 10893 10900 10905 10909 10914 10914 10914 10917 10922
10565 10560 10556 10552 10549 10547 10545 10543 10542 10541 10541 10540 10540 10540 10541 10541 10542 10544 10546 10546 10548 10550 10552 10554 10556 10559 10563 10567 10568 10568 10570 10574 10580 10586 10591 10594 10597 10602 10607 10612 10616 10618 10621 10625 10631 10639 10648 10654 10657 10662 10669 10675 10680 10685 10694 10704 10714 10721 10727 10731 10737 10746 10756 10763 10771 10778 10787 10796 10802 10807 10810 10815 10825 10831 10834 10842 10853 10867 10880 10888 10894 10899 10902 10906 10910 10912 10915 10919
10565 10560 10556 10552 10549 10546 10543 10541 10540 10539 10539 10538 10538 10537 10538 10538 10538 10540 10541 10542 10543 10545 10546 10547 10549 10552 10556 10560 10561 10562 10563 10567 10573 10578 10583 10587 10590 10593 10598 10604 10608 10609 10611 10614 10619 10627 10635 10641 10646 10650 10655 10662 10669 10675 10681 10692 10704 10710 10716 10721 10726 10734 10743 10751 10761 10769 10777 10785 10791 10797 10800 10803 10812 10820 10826 10835 10847 10862 10876 10882 10885 10891 10896 10900 10906 10910 10912 10914
10564 10559 10556 10552 10549 10546 10543 10540 10538 10537 10536 10536 10535 10535 10535 10535 10535 10536 10537 10538 10539 10541 10541 10542 10544 10546 10549 10553 10555 10556 10557 10559 10563 10569 10574 10578 10581 10585 10590 10595 10598 10599 10601 10605 10610 10615 10621 10629 10636 10640 10643 10649 10657 10663 10667 10678 10690 10697 10703 10709 10714 10721 10730 10739 10749 10759 10766 10773 10779 10784 10787 10792 10802 10815 10823 10830 10840 10855 10868 10873 10876 10884 10890 10895 10901 10905 10907 10909
10563 10558 10555 10551 10548 10545 10543 10540 10537 10535 10534 10533 10532 10532 10532 10532 10532 10532 10532 10533 10534 10536 10537 10538 10539 10541 10543 10545 10548 10550 10551 10552 10555 10560 10565 10570 10573 10577 10582 10587 10590 10590 10592 10596 10600 10604 10609 10617 10623 10628 10632 10636 10642 10649 10654 10662 10675 10684 10691 10697 10702 10709 10718 10727 10736 10745 10754 10762 10766 10769 10774 10782 10795 10810 10819 10824 10832 10845 10857 10863 10870 10880 10885 10889 10894 10899 10902 10904
10563 10557 10553 10550 10547 10544 10541 10539 10537 10534 10533 10531 10529 10528 10528 10528 10528 10528 10528 10528 10529 10531 10532 10533 10534 10535 10537 10539 10541 10543 10545 10546 10548 10552 10556 10561 10565 10568 10572 10577 10581 10582 10583 10586 10589 10594 10599 10605 10610 10616 10622 10624 10628 10635 10640 10648 10661 10673 10681 10687 10692 10698 10705 10713 10720 10729 10739 10749 10753 10756 10764 10775 10789 10804 10813 10816 10823 10836 10846 10855 10863 10871 10875 10880 10888 10892 10894 10897
10565 10558 10553 10549 10546 10543 10540 10537 10535 10533 10531 10529 10528 10526 10525 10525 10524 10524 10524 10524 10525 10525 10526 10527 10528 10530 10531 10532 10534 10535 10537 10539 10541 10544 10547 10551 10556 10559 10563 10566 10570 10573 10575 10576 10578 10583 10588 10593 10598 10604 10609 10612 10614 10621 10628 10636 10647 10660 10669 10674 10677 10681 10688 10695 10703 10713 10725 10736 10743 10748 10757 10768 10781 10796 10804 10808 10815 10826 10838 10847 10853 10856 10861 10869 10877 10882 10885 10889
10566 10561 10555 10549 10544 10541 10538 10535 10533 10530 10528 10526 10525 10524 10522 10522 10521 10520 10520 10520 10520 10520 10521 10521 10522 10523 10524 10524 10526 10527 10529 10530 10533 10535 10538 10541 10545 10549 10552 10555 10558 10562 10565 10567 10569 10573 10577 10583 10587 10592 10597 10599 10600 10607 10617 10622 10633 10647 10654 10656 10659 10665 10672 10680 10688 10699 10712 10723 10731 10737 10747 10758 10772 10785 10794 10799 10805 10815 10827 10838 10842 10845 10850 10859 10867 10871 10875 10881